Regional Weather Roundup
Issued by NWS

Home | Current Version | Previous Version | Graphics & Text | Print | Product List | Glossary On
Versions: 1 2 3 4 5 6 7 8 9 10 11 12 13 14 15 16 17 18 19 20 21 22 23 24 25 26 27 28 29 30 31 32 33 34 35 36 37 38 39 40 41 42 43 44 45 46 47 48 49 50
811
ASUS44 KJAN 301110
RWRMS

MISSISSIPPI HOURLY WEATHER ROUNDUP
NATIONAL WEATHER SERVICE JACKSON MS
600 AM CDT TUE SEP 30 2014

NOTE: "FAIR: INDICATES FEW OR NO CLOUDS BELOW 12,000 FEET WITH NO
SIGNIFICANT WEATHER AND/OR OBSTRUCTIONS TO VISIBILITY.

MSZ001>002-007>008-010>013-018>021-025>028-034>036-301200-
NORTHWEST MISSISSIPPI

CITY           SKY/WX    TMP DP  RH WIND       PRES   REMARKS
CLARKSDALE     FAIR      59  59 100 CALM      29.94R
CLEVELAND      FAIR      61  60  96 CALM      29.93R
GREENWOOD      CLEAR     61  60  97 N3        29.92R FOG
GREENVILLE     CLEAR     62  57  83 CALM      29.92R
GRENADA        FAIR      57  57 100 CALM      29.93S
OLIVE BRANCH   CLEAR     61  61 100 CALM      29.95R
OXFORD         FAIR      59  57  94 CALM      29.96R
TUNICA         SUNNY     59  59 100 NW3       29.95R
$$

MSZ003>006-009-014>017-022>024-029>033-037>039-301200-
NORTHEAST MISSISSIPPI

CITY           SKY/WX    TMP DP  RH WIND       PRES   REMARKS
COLUMBUS AFB   CLEAR     60  60 100 CALM      29.94R
CORINTH        FOG       57  55  94 CALM      29.95R VSB 1
GOLDN TRIANGLE CLEAR     63  57  82 CALM      29.93R
STARKVILLE     FAIR      59  59 100 CALM      29.94R
TUPELO         CLEAR     62  59  90 NE3       29.94R
$$

MSZ040-058-301200-
CENTRAL MISSISSIPPI

CITY           SKY/WX    TMP DP  RH WIND       PRES   REMARKS
JACKSON INTL   CLEAR     67  64  90 CALM      29.91R
JACKSON HAWKNS CLEAR     67  64  90 CALM      29.92R
MERIDIAN KEY   CLEAR     63  61  93 CALM      29.92R
MERIDIAN NAS   FOG       63  61  94 CALM      29.93R VSB 3/4
RAYMOND        HAZE      63  57  82 CALM      29.92R VSB 3/4
VICKSBURG      CLEAR     65  63  93 CALM      29.91R
$$

MSZ059>079-301200-
SOUTH MISSISSIPPI

CITY           SKY/WX    TMP DP  RH WIND       PRES   REMARKS
BROOKHAVEN     FAIR      64  64 100 CALM      29.92S FOG
COLUMBIA       FOG       64  64 100 CALM      29.89S VSB 1
HATTIESBURG    PTCLDY    68  67  96 CALM      29.91R
MCCOMB         CLEAR     69  66  90 CALM      29.90S
NATCHEZ        CLEAR     66  64  94 CALM      29.90S
PINE BELT      CLEAR    N/A N/A N/A CALM      29.92R
$$

MSZ080>082-301200-
COASTAL MISSISSIPPI

CITY           SKY/WX    TMP DP  RH WIND       PRES   REMARKS
BILOXI         CLEAR     71  71 100 NE5       29.88R
PASCAGOULA     CLEAR     69  68  96 N3        29.89R FOG
GULFPORT       CLEAR     70  69  97 CALM      29.88R
$$



USA.gov is the U.S. government's official web portal to all federal, state and local government web resources and services.